Retour au catalogue

KUIPER-00430

ActifCommunicationsLEO
NORAD 68935·PAYLOAD·🇺🇸 United States

Lancé Apr 30, 2026 depuis Guiana Space Centre

Loading…

Prochains Passages (prochaines 24 heures)

TLE

FraisSource: CelesTrak SupGP

Époque: Sep 14, 2026, 23:03 UTC

1 68935C 26098S   26257.96048611  .00002563  00000+0  33541-3 0  2574
2 68935  51.9042  23.5816 0000675 104.9532 318.3543 14.79932846    12

Suivez KUIPER-00430 en temps réel avec AllMySat

Download on the App Store